ONEWEB-0345 (49211 NORAD) Tracking and Keplerian Element Data

This shows tracking and keplerian element data for the satellite.

Feedback or suggestion? Click here.




ElementValue
Catalog49211
NameONEWEB-0345
Epoch Orbit364
Epoch Day287.91667824
Epoch Year2021
RAAN317.5769
Inclination87.2107
Eccentricity0.0019806
Argument of Perigee181.7908
Mean Anonmoly12.0161
Mean Motion14.9078665
Decay Rate-0.01294116
L11 49211U 21083AB 21287.91667824 -.01294116 00000-0 -14233+0 0 9992
L22 49211 87.2107 317.5769 0019806 181.7908 12.0161 14.90786650 3640

Live tracking and technical data element details for ONEWEB-0345 (NORAD 49211). ONEWEB-0345 can be tracked NOW for your location showing map with azimuth and elevation plus other details from your city location.

Track the satellite on the map from your city or location and see movement details for azimuth, elevation, latitude, longitude, range, height, and movement on the map or in text.







IsCatalogInMostPopularTable: catalog: 49211, numindb: 7
Update: records affected: 1



GetName: 49211 ONEWEB-0345

Hit Count: updated at: Tue, 19 Oct 2021 09:32:45 GMT